Regional Weather Roundup
Issued by NWS

Home | Current Version | Previous Version | Graphics & Text | Print | Product List | Glossary On
Versions: 1 2 3 4 5 6 7 8 9 10 11 12 13 14 15 16 17 18 19 20 21 22 23 24 25 26 27 28 29 30 31 32 33 34 35 36 37 38 39 40 41 42 43 44 45 46 47 48 49 50
000
ASUS45 KBOI 182210
RWRID

IDAHO REGIONAL WEATHER ROUNDUP
NATIONAL WEATHER SERVICE BOISE ID
400 PM MDT FRI AUG 18 2017

NOTE: "FAIR" INDICATES FEW OR NO CLOUDS BELOW 12000 FEET
WITH NO SIGNIFICANT WEATHER AND/OR OBSTRUCTIONS TO VISIBILITY

IDZ012-014-182300-
SOUTHWEST IDAHO


CITY           SKY/WX    TMP DP  RH WIND       PRES   REMARKS
BOISE          SUNNY     91  32  12 NW10G23   30.04F
CALDWELL       SUNNY     91  40  16 NW9       30.02F
MOUNTAIN HOME  SUNNY     93  36  13 NW14      30.02F
$$

IDZ016-017-182300-
SOUTHCENTRAL IDAHO


CITY           SKY/WX    TMP DP  RH WIND       PRES   REMARKS
BURLEY         SUNNY     83  39  21 W15       30.10F
JEROME         SUNNY     88  32  13 SW14G21   30.11F
TWIN FALLS     SUNNY     87  34  15 W8        30.11F
$$

IDZ019>023-182300-
SOUTHEAST IDAHO


CITY           SKY/WX    TMP DP  RH WIND       PRES   REMARKS
IDAHO FALLS    SUNNY     84  36  18 SW13G23   30.13F
POCATELLO      SUNNY     88  40  18 W17       30.12F
REXBURG        SUNNY     83  36  18 SW12      30.13F
$$

IDZ006-010-011-018-031-032-182300-
CENTRAL IDAHO MOUNTAINS


CITY           SKY/WX    TMP DP  RH WIND       PRES   REMARKS
MCCALL         SUNNY     82  33  17 VRB3      30.14F
HAILEY         SUNNY     82  39  21 S8        30.16F
STANLEY          N/A     83  19   9 N9        30.23F
SALMON         SUNNY     86  40  19 N6        30.03F
CHALLIS        SUNNY     87  29  12 E6        30.08F
$$

IDZ002-004-006-007-026-182300-
NORTHERN IDAHO


CITY           SKY/WX    TMP DP  RH WIND       PRES   REMARKS
LEWISTON       SUNNY     92  36  14 VRB6      29.96F
LOWELL           N/A     95  39  14 CALM      29.94F HX  91
COEUR D`ALENE  MOSUNNY   84  44  24 W14       30.00F
MULLAN PASS    SUNNY     72  36  26 VRB7      30.19F
$$



USA.gov is the U.S. government's official web portal to all federal, state and local government web resources and services.